User: anonymous   Login
Location: Homewood
(41.1836°S, 175.9581°E)
Time: 17:47:54
(UTC+00:00)
Language:

CZ-2D R/B - Orbit

View from above orbital plane
View from above orbital plane
View from above satellite
View from above satellite

Ground track
Ground track

The orbit data is extracted from the following two-line orbital elements,

1 28738U 05024B   24176.54243337  .00010286  00000-0  39767-3 0  9992
2 28738  97.3625 174.9979 0010952 114.1143 246.1243 15.26362035 43798
Epoch (UTC): 24 June 2024 13:01:06
Eccentricity: 0.0010952
inclination: 97.3625°
perigee height: 479 km
apogee height: 494 km
right ascension of ascending node: 174.9979°
argument of perigee: 114.1143°
revolutions per day: 15.26362035
mean anomaly at epoch: 246.1243°
orbit number at epoch: 4379

The dashed part of the orbit path shows where the satellite is in the earth's shadow,  

DLR